Location: Newark
(39.5667°N, 8.9833°E)
Time: 22:28:38
(UTC+00:00)

deb Explorer IX - Pass Details

Date: 22 October 2019
Orbit: 546 x 1105 km, 38.8° (Epoch: 14 November)

Event Time Altitude Azimuth Distance (km) Brightness Sun altitude
Rises 17:44:55 0° 277° (W) 3,601 ? -14.0°
Reaches altitude 10° 17:47:59 10° 264° (W) 2,740 ? -14.6°
Maximum altitude 17:53:03 23° 214° (SW) 2,053 ? -15.6°
Drops below altitude 10° 17:58:27 10° 166° (SSE) 2,925 ? -16.6°
Sets 18:01:51 0° 153° (SSE) 3,902 ? -17.3°
